This is the latest recevied weather packets stored in our database for station/object KY0TEQ-13. If no packets are shown the sender has not sent any weather packets the latest 10 day(s).
| Time | Temp. | Humidity | Pressure | Rain* | Wind** | Luminosity | Snow |
|---|---|---|---|---|---|---|---|
| 1777451833 | 4.44° C | 35% | 1303.5 hPa | 0 mm | - | 0 W/m² | - |
| 1777451530 | 4.44° C | 35% | 1303.7 hPa | 0 mm | - | 0 W/m² | - |
| 1777451224 | 3.89° C | 36% | 1303.8 hPa | 0 mm | - | 0 W/m² | - |
| 1777450921 | 3.89° C | 36% | 1304 hPa | 0 mm | - | 0 W/m² | - |
| 1777450617 | 3.33° C | 38% | 1303.9 hPa | 0 mm | - | 0 W/m² | - |
| 1777450313 | 3.89° C | 36% | 1303.8 hPa | 0 mm | - | 0 W/m² | - |
| 1777450009 | 3.89° C | 37% | 1303.9 hPa | 0 mm | - | 0 W/m² | - |
| 1777449706 | 3.89° C | 37% | 1303.9 hPa | 0 mm | - | 0 W/m² | - |
| 1777449402 | 3.89° C | 36% | 1304 hPa | 0 mm | - | 0 W/m² | - |
| 1777449098 | 3.89° C | 36% | 1303.9 hPa | 0 mm | - | 0 W/m² | - |
| 1777448491 | 3.89° C | 35% | 1304.1 hPa | 0 mm | - | 0 W/m² | - |
| 1777448187 | 3.89° C | 37% | 1304.1 hPa | 0 mm | - | 0 W/m² | - |
| 1777447883 | 3.33° C | 38% | 1304.1 hPa | 0 mm | - | 0 W/m² | - |
| 1777447580 | 2.78° C | 41% | 1304.4 hPa | 0 mm | - | 0 W/m² | - |
| 1777447275 | 2.78° C | 41% | 1304.3 hPa | 0 mm | - | 0 W/m² | - |
| 1777446974 | 2.78° C | 41% | 1304.3 hPa | 0 mm | - | 0 W/m² | - |
| 1777446671 | 2.78° C | 41% | 1304.4 hPa | 0 mm | - | 0 W/m² | - |
| 1777446367 | 3.33° C | 41% | 1304.3 hPa | 0 mm | - | 0 W/m² | - |
| 1777446063 | 2.78° C | 42% | 1304.1 hPa | 0 mm | - | 0 W/m² | - |
| 1777445760 | 2.78° C | 42% | 1304.3 hPa | 0 mm | - | 0 W/m² | - |
| 1777445455 | 3.33° C | 41% | 1304.3 hPa | 0 mm | - | 0 W/m² | - |
| 1777444849 | 2.78° C | 42% | 1304.1 hPa | 0 mm | - | 0 W/m² | - |
| 1777444544 | 4.44° C | 37% | 1304.1 hPa | 0 mm | - | 0 W/m² | - |
| 1777444242 | 4.44° C | 37% | 1304.4 hPa | 0 mm | - | 0 W/m² | - |
| 1777443938 | 4.44° C | 35% | 1304.4 hPa | 0 mm | - | 0 W/m² | - |
* Rain latest hour (hover to see other rain measurements)
** Current wind speed in m/s (hover to see current wind gust speed)